Regional Weather Roundup
Issued by NWS Charleston, SC

Home | Current Version | Previous Version | Text Only | Print | Product List | Glossary On
Versions: 1 2 3 4 5 6 7 8 9 10 11 12 13 14 15 16 17 18 19 20 21 22 23 24 25 26 27 28 29 30 31 32 33 34 35 36 37 38 39 40 41 42 43 44 45 46 47 48 49 50
000
ASUS42 KCHS 220927
RWRCHS

REGIONAL WEATHER ROUNDUP
NATIONAL WEATHER SERVICE CHARLESTON SC
500 AM EDT SAT JUL 22 2017

NOTE: "FAIR" INDICATES FEW OR NO CLOUDS BELOW 12,000 FEET WITH NO
SIGNIFICANT WEATHER AND/OR OBSTRUCTIONS TO VISIBILITY.

NOT ALL STATIONS ARE QUALITY CONTROLLED. USE DATA WITH CAUTION...
ESPECIALLY DEWPOINT OBSERVATIONS.

SCZ027-030-031-034>040-042>050-221000-
...SOUTHEAST SOUTH CAROLINA...

CITY           SKY/WX    TMP DP  RH WIND       PRES   REMARKS
N CHARLESTON   CLEAR     75  73  93 S5        29.99S
WATERFRONT PRK   N/A     80  77  90 S5        29.97S
JOHNS ISLAND   FAIR      77  75  94 S5        30.00S
PINOPOLIS        N/A     77  75  94 CALM      29.92S
MONCKS CORNER  FAIR      73  72  94 CALM      30.00R FOG
SUMMERVILLE    FAIR      73  73 100 CALM      30.00S
BEAUFORT MCAS  PTCLDY    77  77 100 CALM      30.01R
BEAUFORT ARPT  FAIR      77  75  94 W6        30.00R
HILTON HEAD IS CLEAR     77  75  94 CALM      30.01S
WALTERBORO     SUNNY     73  73 100 S3        30.01S
ALLENDALE      NOT AVBL

...SOUTHERN MIDLANDS AND PEE DEE...

CITY           SKY/WX    TMP DP  RH WIND       PRES   REMARKS
GEORGETOWN     FAIR      73  72  94 CALM      30.01R
KINGSTREE      FAIR      73  72  94 CALM      29.99S FOG
ORANGEBURG     CLEAR     74  72  93 CALM      29.99S
BARNWELL       FAIR      73  73 100 CALM      30.00R
AIKEN          FAIR      70  70 100 CALM      30.03R
MANNING        FAIR      75  75 100 W12G20    30.00R
COLUMBIA       PTCLDY    75  71  87 CALM      29.98R
SUMTER         CLEAR     75  73  92 S5        29.97R
FLORENCE       CLEAR     76  76 100 SW7       29.98S
MYRTLE BEACH   CLEAR     78  75  90 SW6       30.00F
N MYRTLE BEACH CLEAR     78  76  93 SW9       29.99S

$$

GAZ063-065-086>088-099>101-113>116-118-119-134>141-150-221000-
...SOUTHEAST GEORGIA...

CITY           SKY/WX    TMP DP  RH WIND       PRES   REMARKS
SAVANNAH ARPT  CLEAR    N/A N/A N/A SW3       30.01S
HUNTER AAF     CLEAR     73  72  95 CALM      29.98S
FORT STEWART   CLEAR     73  70  91 N3        29.99R
STATESBORO     CLEAR     73  73 100 CALM      30.00S
SYLVANIA       SUNNY     73  73 100 CALM      30.01S
CLAXTON        FAIR      71  71  98 CALM      30.01S FOG

...CSRA...CENTRAL AND FAR SOUTHEAST GEORGIA...

CITY           SKY/WX    TMP DP  RH WIND       PRES   REMARKS
THOMSON        CLEAR     71  69  95 SW3       30.04S
AUGUSTA-BUSH   PTCLDY    73  71  93 CALM      29.99R
AUGUSTA-DANIEL CLEAR     75  69  81 S5        30.00R
SWAINSBORO     FAIR      72  72 100 CALM      30.02R
VIDALIA        CLEAR     72  72 100 S3        30.01S
EASTMAN        PTSUNNY   74  74 100 S5        30.03R FOG
HAZLEHURST     FAIR      74  74 100 CALM      30.01R
ALMA           PTCLDY    72  71  97 CALM      30.01S
WAYCROSS       PTCLDY    74  74 100 CALM      30.02R
JESUP          NOT AVBL
BAXLEY         FAIR      72  72 100 CALM      30.01R
BRUNSWICK      CLEAR     73  73 100 CALM      30.02S
SAINT SIMONS   CLEAR     77  74  90 W6        30.01R

$$

SCZ027-028-034-036>038-045-046-048>050-GAZ119-141-221000-
...LAKE AND SUPPLEMENTAL COASTAL OBSERVATIONS...

STATION/POSITION TIME  TEMP    WIND        PRES    WAVE   SWELL
                       AIR SEA DIR/SP/G            HT/PER HT/PER/DIR
                 (UTC) (F)     (DEG/KT/KT) (MB)    (FT/S) (FT/S/D)
WINYAH BAY       0845   77     240/  2     1016.0S
LAKE MURRAY      0920   80     220/  4/  6 1014.2
ACE BASIN NERRS  0845   78        CALM     1016.0R
FORT PULASKI     0900   78 86  320/  6/  7 1016.3
SAPELO ISLAND    0900   76        CALM     1016.0

$$

ANZ835-935-AMZ111-154-330-350-352-354-370-450-454-472-221000-
...C-MAN AND BUOY OBSERVATIONS...

STATION/POSITION TIME  TEMP    WIND        PRES    WAVE   SWELL
                       AIR SEA DIR/SP/G            HT/PER HT/PER/DIR
                 (UTC) (F)     (DEG/KT/KT) (MB)    (FT/S) (FT/S/D)
BUOY 41004       0910   82 83  220/ 12/ 14 1015.5
BUOY 41008       0850   81 82  230/  8/ 10 1015.5R   2/ 9   2/ 80/ 9
FOLLY BEACH CMAN 0900   82     200/ 10/ 12 1016.5R
CAPERS NEARSHORE 0908   79 83  230/ 10/ 14 1015.6R
FRIPP NEARSHORE  0908   82 84  220/ 12/ 17 1015.2R


STATION/POSITION TIME  TEMP    WIND        PRES    WAVE   SWELL
                       AIR SEA DIR/SP/G            HT/PER HT/PER/DIR
                 (UTC) (F)     (DEG/KT/KT) (MB)    (FT/S) (FT/S/D)
5E ST. MARYS GA  0900      82                N/A     2/ 8
FRYING PAN BUOY  0910   83 83  230/ 14/ 17 1015.6
BUOY 41025       0850   82 84  250/ 19/ 21 1014.7S   4/ 4   2/130/ 9
CAPE LOOKOUT NC  0900   80     240/ 10/ 13 1015.1R
BUOY 41002       0850   82 83  220/ 12/ 14 1017.5R   4/ 9   3/100/ 9
BUOY 41010       0910   84 85  210/ 12/ 16 1017.0
ST AUGUSTINE FL  0900   75 81  220/  4/  5 1016.6R


$$




USA.gov is the U.S. government's official web portal to all federal, state and local government web resources and services.